Starlink 35856

operational
NORAD ID: 67013 Int'l Des: 2025-293 Owner: SPXS Country: US Constellation: starlink
LEOCIRCULAR

关于 Starlink 35856

正在加载描述...

实时位置

正在加载3D地球...

即将过境

高度历史

Altitude vs Time

uPlot chart will show altitude changes over time

两行轨道根数

1 67013C 25293L 25346.10187500 -.00280570 00000+0 -38961-3 0 3469
2 67013 69.9973 325.9327 0004516 267.1078 188.2615 16.06006400 15
Epoch: Dec 12, 2025 • Age: 56 hours

当前状态

高度 267.7 km
速度 7.75 km/s
星下点 -19.93°S, 111.62°E
发射日期 Dec 10, 2025
运行时间 3 days
类型 internet

技术详情

分类 Payload
质量 575.00 kg
干质量 530.00 kg
总质量 575.00 kg
长度 0.30 m
直径 4.10 m
跨度 29.00 m
形状 Box + pan
制造商 SPXS
平台类型 Starlink V2MO
阶段状态 In Orbit
所有者/国家 SPXS/US

大型星座

Loading constellations...